Location: Observatorio Las Palmas
(29.0667°N, 110.9333°W)
Time: 04:15:24
(UTC-07:00)

Skynet4D Del rocket - Visible Passes

Search period start: 24 October 2014 00:00
Search period end: 03 November 2014 00:00
Orbit: 763 x 1292 km, 26.9° (Epoch: 24 October)

Date Brightness Start Highest point End Pass type
(mag) Time Alt. Az. Time Alt. Az. Time Alt. Az.
24 Oct 3.7 18:33:25 10° WSW 18:38:41 64° S 18:42:39 18° E visible
24 Oct 5.2 20:25:43 10° W 20:28:17 29° W 20:28:17 29° W visible
25 Oct 3.5 19:14:47 10° W 19:20:06 71° S 19:21:33 48° ESE visible
25 Oct 6.5 21:07:11 10° W 21:07:11 10° W 21:07:11 10° W visible
26 Oct 3.7 18:03:47 10° WSW 18:09:10 68° S 18:14:29 10° E visible
26 Oct 4.1 19:56:14 10° W 20:00:28 52° WSW 20:00:28 52° WSW visible
27 Oct 3.6 18:45:13 10° W 18:50:35 70° S 18:53:47 24° ESE visible
27 Oct 5.8 20:37:47 10° W 20:39:25 20° WSW 20:39:25 20° WSW visible
28 Oct 3.7 19:26:43 10° W 19:31:58 57° S 19:32:46 51° SSE visible
29 Oct 3.7 18:15:35 10° W 18:21:03 68° S 18:26:09 11° ESE visible
29 Oct 4.9 20:08:21 10° W 20:11:47 32° SW 20:11:47 32° SW visible
30 Oct 4.0 18:57:08 10° W 19:02:25 52° SSW 19:05:13 26° SE visible
30 Oct 6.3 20:50:27 10° WSW 20:50:53 12° WSW 20:50:53 12° WSW visible
31 Oct 4.7 19:38:53 10° W 19:43:40 32° SSW 19:44:22 31° S visible
01 Nov 4.4 18:27:29 10° W 18:32:50 46° SSW 18:37:55 10° ESE visible
01 Nov 5.8 20:21:20 10° WSW 20:23:36 16° SW 20:23:36 16° SW visible
02 Nov 5.1 19:09:24 10° W 19:14:02 28° SSW 19:17:15 16° SSE visible
